www.pogodaiklimat.ru

Погода и климат >> Архив погоды >> Россия >> Коми >> Воркута


АРХИВ ПОГОДЫ в Воркуте

Время (UTC), дата Ветер
(напр.,м/с)
 
Видим.   Явления Облачность Т
(С)
Тd
(С)
f
(%)
Тe
(С)
Тes
(С)
Комфортность P
(гПа)
Po
(гПа)
Тmin
(С)
Tmax
(С)
R
(мм)
R24
(мм)
S
(см)
03 11.06 СВ 3 10 км слаб. дождь 10/8 420 м
[Sc Ac und]
+2.4 +0.3 86 -2 -1 прохладно 1006.7 985.4 +0.8 0.9 <0.5
06 11.06 СВ 3 10 км {дождь} 10/8 600 м
[Sc Ac und]
+4.0 +0.3 77 0 +1 прохладно 1006.6 985.5
09 11.06 СВ 4 10 км слаб. дождь 10/10 420 м
[Sc]
+3.6 +0.4 80 -1 -1 холодно 1006.5 985.4
12 11.06 С 4 10 км в посл. час дождь 10/8 540 м
[Sc As op]
+3.9 +0.2 77 -0 -0 холодно 1006.4 985.3
15 11.06 С 4 10 км 10/8 1050 м
[Sc Ac und]
+3.7 -0.6 73 -1 -1 холодно 1006.0 984.9 +4.7 0.0
18 11.06 С 4 10 км 8/6 570 м
[Sc Ac trans]
+1.5 -2.6 74 -3 -3 холодно 1006.0 984.7
21 11.06 С 3 10 км 3/3 300 м
[Sc diur, vesp]
-0.6 -2.4 88 -5 -5 холодно 1005.5 984.1
00 12.06 СЗ 1 10 км 8/6 210 м
[St Ci fib]
-0.6 -2.4 88 -3 -2 по сезону 1005.4 984.0
03 12.06 С 3 10 км 9/9 960 м
[Cu Sc]
+1.7 -5.6 58 -2 -2 прохладно 1004.3 983.0 -1.9 0
06 12.06 З 3 10 км 10/10 840 м
[Sc]
+1.9 -4.9 61 -2 -2 холодно 1003.8 982.5
09 12.06 З 4 10 км 10/8 960 м
[Cb cap Ac und]
+2.6 -2.9 67 -2 -1 очень
холодно
1003.1 982.1
12 12.06 СЗ 4
{10}
10 км в посл. час ливневой дождь 10/8 960 м
[Cb cap Ci fib]
+2.5 -0.8 79 -2 -2 очень
холодно
1002.9 981.9
15 12.06 З 4 10 км слаб. ливневой снег 10/8 420 м
[Cb cap Ac und]
+1.6 -0.3 87 -4 -3 очень
холодно
1002.2 981.0 +3.4 0.5
18 12.06 СЗ 4 6000 м слаб. ливневой снег 10/10 300 м
[Cb cap]
+0.2 -0.4 96 -5 -5 очень
холодно
1001.8 980.5
21 12.06 С 6 5000 м слаб. ливневой снег 10/8 330 м
[Cb cap Ac und]
-0.9 -1.9 93 -8 -8 очень
холодно
1001.2 979.9
00 13.06 СЗ 4 6000 м слаб. ливневой снег 10/10 360 м
[Cb cap]
-1.7 -2.8 92 -8 -8 очень
холодно
1000.9 979.4
03 13.06 С 4 4700 м слаб. ливневой снег 10/8 360 м
[Cb cap Ac und]
-1.4 -2.8 90 -7 -7 очень
холодно
999.5 978.2 -2.2 2 1
06 13.06 Ю 9-10
{11}
10 км в посл. час ливневой снег 9/8 570 м
[Cb cap Ac cast]
-0.6 -2.4 88 -9 -9 очень
холодно
999.4 978.1
09 13.06 СЗ 9-10
{11}
10 км 10/10 870 м
[Cb cap]
+1.1 -4.1 68 -6 -6 очень
холодно
1000.6 979.4
12 13.06 СЗ 8-12
{13}
10 км {ливн. осадки} 10/10 840 м
[Cb cap]
+1.6 -5.0 61 -5 -5 очень
холодно
1001.5 980.3
15 13.06 СЗ 8-12
{13}
10 км 10/10 720 м
[Cb cap]
-0.6 -4.7 74 -8 -8 очень
холодно
1001.7 980.4 +1.6 0.3
18 13.06 СЗ 8-12
{13}
7000 м слаб. крупа 10/10 480 м
[Cb cap]
-1.2 -3.8 82 -9 -9 очень
холодно
1001.4 980.1
21 13.06 СЗ 8-13
{14}
6000 м слаб. ливневой снег 10/10 400 м
[Cb cap]
-2.0 -4.1 86 -10 -10 очень
холодно
1000.9 979.4
00 14.06 СЗ 9-14
{14}
3600 м слаб. ливневой снег 10/8 480 м
[Cb cap Ac und]
-2.2 -3.7 89 -11 -11 очень
холодно
1000.7 979.2
03 14.06 СЗ 9-13
{14}
10 км {ливн. осадки} 10/8 300 м
[Cb cap Ac und]
-2.3 -4.5 85 -11 -11 очень
холодно
1001.7 980.2 -3.2 0.6 1
06 14.06 СЗ 6
{14}
10 км {ливн. осадки} 10/8 500 м
[Cb cap Ac und]
-0.3 -3.7 78 -7 -7 очень
холодно
1002.9 981.6
09 14.06 СЗ 6
{10}
10 км 10/8 700 м
[Cb cap Ac und]
+2.1 -2.5 72 -4 -3 очень
холодно
1003.3 982.1
12 14.06 СЗ 6
{10}
10 км в посл. час ливневой дождь 10/8 750 м
[Cb cap Ac und]
+2.4 -0.6 81 -3 -3 очень
холодно
1003.8 982.5
15 14.06 СЗ 7
{11}
10 км 10/8 540 м
[Cb cap Ac und]
+2.3 -1.3 77 -4 -4 очень
холодно
1003.3 982.1 +3.4 0.3
18 14.06 З 5 10 км в посл. час ливневой снег 10/10 300 м
[Cb cap]
+0.8 +0.1 95 -5 -5 очень
холодно
1002.4 981.2
21 14.06 З 5 10 км в посл. час ливневой дождь 10/9 270 м
[Cb cap Ci fib]
+0.6 -0.2 94 -6 -6 очень
холодно
1001.2 980.0
00 15.06 ЮЗ 5 8000 м слаб. снег 10/10 90 м
[Frnb]
+0.8 +0.3 96 -5 -5 холодно 999.7 978.5
03 15.06 ЮЗ 6 10 км в посл. час дождь 10/10 120 м
[Frnb]
+1.8 +1.0 94 -5 -5 очень
холодно
998.7 977.5 +0.3 0.8 0
06 15.06 ЮЗ 6 10 км слаб. дождь 10/10 240 м
[Frnb]
+2.8 +1.8 93 -3 -3 очень
холодно
998.3 977.4
09 15.06 ЮЗ 6 10 км в посл. час ливневой дождь 10/6 360 м
[Cb cap Ac und]
+3.6 +1.6 87 -2 -2 очень
холодно
998.6 977.6
12 15.06 З 5 10 км {ливн. осадки, дождь} 10/6 570 м
[Cb cap Ac und]
+3.6 +0.2 78 -1 -1 очень
холодно
999.2 978.2
15 15.06 З 4 10 км в посл. час ливневой дождь 10/6 500 м
[Cb cap Ac und]
-2.4 +0.5 100 -9 -9 очень
холодно
999.9 978.7 +4.2 0.3
18 15.06 З 3 10 км {ливн. осадки} 10/6 420 м
[Sc Ac und]
+1.6 +0.5 92 -3 -3 холодно 1000.3 979.1
21 15.06 ЮЗ 2 4200 м слаб. снег {дождь} 10/10 180 м
[Frnb]
+0.4 -0.2 96 -3 -3 холодно 999.8 978.5
00 16.06 З 5 10 км {снег} 10/10 180 м
[Frnb]
+0.2 -0.6 94 -6 -6 холодно 999.1 977.8
03 16.06 ЮЗ 5 10 км слаб. снег 10/10 360 м
[Sc]
+1.1 0.0 92 -5 -5 очень
холодно
998.3 977.2 +0.1 0.0 0
06 16.06 ЮЗ 7-10
{10}
10 км {снег} 10/10 570 м
[Sc]
+3.6 -1.1 71 -2 -2 очень
холодно
998.2 977.3
09 16.06 ЮЗ 8-12
{13}
10 км слаб. дождь 10/9 500 м
[Sc Ac und]
+5.1 -0.2 69 -0 -0 очень
холодно
997.6 976.9
12 16.06 Ю 7-10
{12}
10 км слаб. ливневой дождь 10/8 540 м
[Cb cap Ac und]
+5.5 +2.0 78 0 0 очень
холодно
997.0 976.3
15 16.06 Ю 6
{11}
10 км слаб. дождь 10/10 660 м
[Sc]
+6.0 +2.6 79 +1 +1 холодно 996.1 975.4 +6.1 0.4
18 16.06 Ю 7
{11}
8000 м слаб. дождь 10/10 300 м
[Sc]
+4.3 +3.3 93 -2 -2 холодно 994.9 974.2
21 16.06 Ю 6 5000 м слаб. дождь 10/10 210 м
[Frnb]
+3.1 +2.9 99 -3 -3 холодно 994.2 973.3
00 17.06 ЮЗ 4 5000 м слаб. снег {дождь} 10/10 150 м
[Frnb]
+0.3 0.0 98 -5 -5 холодно 995.1 973.9
03 17.06 ЮЗ 7
{10}
3200 м слаб. ливневой снег 10/10 210 м
[Cb cap]
+1.6 +1.1 96 -5 -5 очень
холодно
994.3 973.2 -0.2 6 0
06 17.06 ЮЗ 8-10
{11}
9000 м слаб. ливневой снег 10/8 400 м
[Cb cap Ac und]
+3.0 +1.7 91 -4 -4 очень
холодно
994.9 974.0
09 17.06 З 7
{11}
10 км в посл. час ливневой снег 10/8 360 м
[Cb cap Ac und]
+3.1 +1.3 88 -3 -3 очень
холодно
995.7 974.8
12 17.06 ЮЗ 8-10
{11}
10 км {ливн. осадки} 10/6 450 м
[Cb cap Ac trans Ci fib]
+4.6 +1.0 77 -1 -1 очень
холодно
996.7 976.0
15 17.06 ЮЗ 7
{10}
10 км {ливн. осадки} 10/6 600 м
[Cb cap Ac und]
+4.8 +1.5 79 -1 -1 очень
холодно
997.4 976.7 +5.5 0.8
18 17.06 ЮЗ 4 10 км слаб. ливневой дождь 10/8 630 м
[Cb cap Ac und]
+3.0 +1.5 90 -2 -2 холодно 997.5 976.6
21 17.06 ЮЗ 5 10 км в посл. час ливневой дождь 10/10 180 м
[Cb cap]
+1.7 +1.2 96 -4 -4 холодно 997.1 976.0
00 18.06 ЮЗ 1 7000 м в посл. час ливневой снег 10/10 210 м
[Frnb]
+0.5 -0.1 96 -2 -2 прохладно 996.5 975.4

 

Местоположение метеостанции Воркута (Коми, Россия): широта 67.48 долгота 63.97 высота над уровнем моря 172 м.

В архиве по умолчанию представлена погода в Воркуте за последнюю неделю. Архивные данные за месяц целиком и за предыдущие месяцы, начиная с января 2011 года, Вы можете получить, выбрав интересующий диапазон дат из раскрывающегося списка и нажав кнопку "Ввод!".


*Определитесь, кто Вы:
робот инопланетянин человек

Внимание! Время в таблицах - всемирное. Для получения местного времени необходимо прибавить поправку, которая равна 3 ч.

Смотрите также архив погоды в соседних городах и на ближайших метеорологических станциях:

Погода в Елецкой (Коми, Россия) (48 км)
Погода в Харпе (Ямало-Ненецкий АО, Россия) (109 км)
Погода в Салехарде (Ямало-Ненецкий АО, Россия) (158 км)
Погода в Петруни (Коми, Россия) (182 км)
Погода в Белоярске (Ямало-Ненецкий АО, Россия) (192 км)
Погода в Усть-Каре (Ненецкий АО, Россия) (201 км)
Погода в Питляре (Ямало-Ненецкий АО, Россия) (203 км)
Погода в Харуте (Ненецкий АО, Россия) (204 км)
Погода в Мужах (Ямало-Ненецкий АО, Россия) (236 км)
Погода в Хорей-Вере (Ненецкий АО, Россия) (254 км)

Пояснения к столбцам:

Ветер - указаны скорость ветра в м/с - средняя за 10 мин, порывы в срок и между сроками (в фигурных скобках) и направление, откуда дует ветер: С - северный, СВ - северо-восточный, В - восточный, ЮВ - юго-восточный, Ю - южный, ЮЗ - юго-западный, З - западный, СЗ - северо-западный.
Видимость - горизонтальная дальность видимости в метрах или километрах. При видимости от 1 до 10 км при отсутствии осадков обычно наблюдается дымка, при ухудшении видимости до 1 км и менее - туман. В сухую погоду видимость может ухудшаться дымом, пылью или мглою.
Явления - указаны атмосферные явления, наблюдавшиеся в срок или в последний час перед сроком; фигурными скобками обозначены явления, наблюдавшиеся между сроками (за 1-3 часа до срока); квадратными скобками обозначены град или гололедные отложения с указанием их диаметра в мм.
Облачность - указаны через наклонную черту общая и нижняя облачность в баллах и высота нижней границы облаков в метрах; квадратными скобками обозначены формы облаков: Ci - перистые, Cs - перисто-слоистые, Cc - перисто-кучевые, Ac - высококучевые, As - высокослоистые, Sc - слоисто-кучевые, Ns - слоисто-дождевые, Cu - кучевые, Cb - кучево-дождевые. Подробнее классификацию облаков см. в Атласе облаков (PDF).
T - Температура воздуха - температура, измеренная на высоте 2 м над землей.
Td - Температура точки росы - температура, при понижении до которой содержащийся в воздухе водяной пар достигнет насыщения.
f - Относительная влажность воздуха - влажноcть воздуха, измеренная на высоте 2 м над землей.
Te - Эффективная температура - температура, которую ощущает одетый по сезону человек в тени. Характеристика душности погоды. При расчете учитывается влияние влажности воздуха и скорости ветра на теплоощущения человека.
Tes - Эффективная температура на солнце - температура, которую ощущает человек, с поправкой на солнечный нагрев. Характеристика знойности погоды. Зависит от высоты солнца над горизонтом, облачности и скорости ветра. Ночью, в пасмурную погоду, а также при ветре 12 м/с и более поправка равна нулю.
P - Атмосферное давление - приведенное к уровню моря атмосферное давление.
Po - Атмосферное давление - измеренное на уровне метеостанции атмосферное давление.
Tmin - Минимальная температура - минимум температуры воздуха на высоте 2 м над землей.
Tmax - Максимальная температура - максимум температуры воздуха на высоте 2 м над землей.
R - Количество осадков - Количество выпавших осадков за период времени, мм. При наведении курсора мыши на число - период времени, за который выпало указанное количество осадков.
R24 - Количество осадков - Количество выпавших осадков за 24 часа, мм.
S - Снежный покров - Высота снежного покрова, см. При наведении курсора мыши на число - состояние снежного покрова и степень покрытия местности в баллах.